Location: Kellogg
(38.0159°N, 90.0546°W)
Time: 16:58:31
(UTC+00:00)

Altair - Pass Details

Date: 14 September 2024
Orbit: 1501 x 1682 km, 47.2° (Epoch: 15 October)

Event Time Altitude Azimuth Distance (km) Brightness Sun altitude
Exits shadow 08:06:57 65° 121° (ESE) 1,802 7.7 -38.8°
Drops below altitude 10° 08:16:21 10° 61° (ENE) 3,948 10.3 -37.5°
Sets 08:19:33 0° 59° (ENE) 4,939 11.1 -37.1°
